Temperature
14 14 14 14 12 11 13 14 15 16 18 20 21 21 20 20 20 20 20 20 20 20 20 19 19 18 18 18 18 18 18 18 18 18 17 17 17 17 17 16 16 16 16 16 16 15 15 15 15
13 14 14 14 11 12 13 14 15 17 18 20 20 21 20 20 20 20 20 20 20 20 19 19 18 18 17 17 17 17 17 17 17 17 17 17 17 16 16 16 16 16 16 15 15 15 15 15 14
13 13 14 11 11 12 14 15 16 17 19 19 19 20 20 20 20 19 19 19 19 19 19 18 18 18 17 17 17 17 17 17 17 17 17 17 16 16 16 16 16 15 15 15 15 15 14 14 14
13 13 13 11 12 12 14 15 15 16 17 18 18 18 19 19 19 19 19 19 19 19 18 18 18 17 17 17 17 16 16 16 16 16 16 16 16 16 15 15 15 15 15 15 15 14 14 14 14
13 12 11 11 12 12 13 15 16 15 16 17 17 16 18 18 18 18 18 18 18 18 18 18 17 17 17 17 16 16 16 16 16 16 16 16 16 16 15 15 15 14 15 14 14 14 14 14 13
12 10 10 11 12 13 13 15 15 14 15 16 16 15 17 18 18 18 18 18 17 18 17 17 17 17 17 16 16 16 16 16 16 16 16 16 15 15 15 15 14 14 14 14 14 14 13 13 13
11 9 10 11 11 12 13 15 14 13 14 15 15 15 16 17 17 17 17 17 17 17 17 17 16 16 16 16 16 16 16 16 16 16 15 15 15 15 15 15 14 14 14 14 14 14 13 13 13
11 9 10 10 11 12 13 13 13 13 13 15 15 14 15 15 16 16 16 16 16 16 16 16 16 16 16 16 16 15 15 15 15 15 15 15 15 15 15 15 14 14 14 14 13 13 13 13 13
11 8 9 10 11 11 12 12 12 13 13 13 14 14 14 15 15 15 15 15 15 15 15 15 15 15 15 15 15 15 15 15 15 15 15 15 15 15 14 14 14 14 14 13 13 13 13 13 12
10 8 9 11 11 11 11 11 11 12 11 12 13 14 14 14 14 14 14 14 14 14 15 15 15 15 15 15 15 15 15 15 15 15 15 14 14 14 14 14 14 14 13 13 13 12 12 12 12
9 8 9 10 11 11 10 11 11 11 10 11 12 12 13 13 13 13 13 13 14 14 14 14 14 14 14 14 15 15 14 14 14 14 14 14 14 14 14 14 13 13 13 12 12 12 12 12 12
9 9 10 10 10 10 10 10 10 10 11 12 12 12 12 12 12 13 13 13 13 13 13 13 14 14 14 14 14 14 14 14 14 14 14 14 14 14 14 14 13 13 13 12 12 12 12 12 12
8 8 9 9 9 9 9 9 9 10 11 12 12 12 11 12 12 12 13 13 13 13 13 13 13 13 14 14 13 13 14 14 14 13 13 14 14 13 13 13 13 13 13 12 12 12 12 11 11
8 8 8 9 9 9 9 9 9 10 11 11 11 11 11 12 12 12 12 12 12 13 13 13 13 13 13 13 13 13 13 13 13 13 13 13 13 13 13 13 13 13 13 12 12 12 11 11 11
8 7 7 8 8 9 8 8 8 11 11 11 11 11 11 11 11 11 12 12 12 12 12 12 12 13 13 13 13 13 13 13 13 13 13 13 13 13 13 13 13 13 12 12 12 11 11 11 11
6 6 6 7 8 9 8 7 9 11 10 10 10 10 10 11 11 11 11 11 12 12 12 12 12 12 12 12 12 12 12 12 12 12 12 13 13 12 12 12 13 12 12 12 11 11 11 10 10
5 5 5 7 8 8 8 7 8 10 10 9 10 10 10 10 11 11 11 11 11 11 11 12 12 12 12 12 12 12 12 12 12 12 12 12 12 12 12 12 12 12 12 11 11 11 11 10 10
6 5 5 6 7 7 7 7 8 9 9 9 9 9 9 9 10 10 10 10 11 11 11 11 11 11 11 11 11 12 12 12 12 12 12 12 12 12 12 12 12 12 11 11 11 11 10 10 10
6 6 5 6 7 7 6 7 8 8 8 8 8 8 9 9 10 10 10 10 10 11 11 11 11 11 11 11 11 11 11 11 11 11 12 12 12 12 11 11 11 11 11 11 11 10 10 10 10
6 5 5 6 7 7 6 6 7 7 7 8 8 8 8 9 9 10 10 10 10 10 10 10 10 10 10 10 10 10 11 11 11 11 11 11 11 11 11 11 11 11 11 11 10 10 10 10 10
6 5 5 5 6 5 5 5 6 7 8 8 8 8 8 9 9 9 9 9 9 9 10 10 10 10 10 10 10 10 10 10 10 11 10 11 11 11 11 11 11 11 11 11 11 10 10 10 9
5 6 6 6 4 3 4 4 5 5 6 7 7 8 8 8 9 9 9 9 9 9 9 9 9 9 9 9 9 9 9 9 10 10 10 10 10 11 11 11 11 11 10 11 11 10 10 10 10
6 6 6 5 4 3 3 3 4 5 5 6 6 7 8 8 8 8 8 8 8 8 8 9 9 9 9 9 9 9 9 9 9 10 10 10 10 10 10 10 10 10 10 10 10 10 10 10 10
6 5 4 3 2 2 3 3 3 4 5 6 6 7 8 8 8 8 8 8 8 8 8 8 8 8 8 8 9 9 9 9 9 9 9 9 9 10 10 10 10 10 10 10 10 10 10 10 10
5 3 2 1 1 2 4 3 4 5 5 6 6 7 8 8 8 8 7 7 7 8 8 8 8 8 8 8 8 8 8 8 9 9 9 9 9 9 10 10 10 10 10 10 10 10 10 10 10
4 3 2 2 1 2 3 3 4 5 5 6 7 7 7 7 7 7 7 7 7 7 7 7 7 7 8 8 8 8 8 8 8 9 9 9 9 9 10 10 10 10 10 10 10 10 10 10 10
4 3 3 2 1 1 2 2 3 5 5 5 6 6 6 7 7 7 7 7 6 6 6 7 7 7 7 7 8 8 8 8 8 8 9 9 9 9 10 10 10 10 10 10 10 10 10 10 10
4 3 1 1 1 2 2 2 3 4 5 5 5 5 6 6 6 6 6 6 6 6 6 6 6 6 7 7 7 7 8 8 8 8 8 9 9 9 9 9 9 9 9 10 9 9 9 9 9
3 3 2 1 1 1 1 3 4 4 4 4 4 5 5 6 6 6 6 6 6 6 6 6 6 6 6 7 7 7 7 7 8 8 8 8 9 9 9 9 9 9 9 9 9 9 9 9 9
3 3 2 1 1 0 1 3 5 4 4 4 4 5 5 5 5 5 5 6 6 6 6 5 5 6 6 6 6 6 7 7 7 8 8 8 8 9 9 9 9 9 9 9 9 9 9 9 9
Wind_Speed
10 8 2 4 4 2 4 6 4 4 3 3 3 1 3 3 2 2 2 1 4 8 11 16 17 17 18 18 19 19 19 19 19 19 19 20 20 20 20 20 19 19 19 18 18 18 17 17 17
6 3 4 4 3 3 6 6 6 7 6 5 4 1 1 1 1 3 1 1 6 8 10 13 16 17 17 17 18 19 19 19 19 20 20 20 20 20 20 20 19 19 19 19 18 18 17 17 17
5 1 3 3 4 8 6 4 7 6 6 3 4 4 1 1 1 2 1 3 6 6 8 12 16 17 18 17 18 18 19 20 20 20 20 20 20 20 20 20 19 19 19 19 18 18 17 17 17
3 3 2 2 9 7 5 4 4 6 6 3 2 5 4 2 1 1 2 4 6 5 6 11 15 17 17 17 18 18 19 20 20 21 21 21 21 21 20 20 20 20 20 19 19 18 17 17 16
3 3 1 5 10 6 5 6 6 8 6 6 4 3 6 4 3 5 4 3 4 4 5 9 14 16 17 17 17 18 18 20 20 21 22 22 22 21 21 21 21 21 20 19 19 18 17 16 16
3 2 3 8 9 5 4 6 5 5 5 6 4 4 6 2 5 4 3 2 2 3 4 6 12 14 15 16 17 17 18 20 21 21 22 22 22 22 22 22 22 21 20 20 19 18 17 16 16
3 2 6 6 6 5 4 4 3 5 7 6 4 4 6 6 6 5 3 3 1 1 2 4 7 11 13 14 16 17 17 19 21 21 22 22 23 23 23 23 22 22 21 20 19 19 17 16 16
3 2 4 5 6 6 3 4 3 5 8 6 3 3 6 8 8 6 5 3 2 1 2 4 4 7 8 10 14 15 17 18 19 20 20 20 22 23 23 23 23 22 21 21 20 19 18 16 16
3 1 6 6 5 5 4 5 7 6 6 6 5 6 8 8 6 6 6 5 4 4 3 4 5 5 6 8 11 12 14 16 17 18 19 19 17 19 20 21 23 23 22 21 20 19 17 16 15
3 5 8 5 3 5 7 7 8 7 10 9 10 10 8 6 5 5 5 6 6 7 6 5 5 6 6 7 7 9 10 11 12 12 15 16 15 15 18 21 23 23 22 22 20 19 17 13 11
3 7 6 7 7 7 9 9 7 8 12 10 11 12 11 10 9 8 7 8 8 8 7 7 6 6 7 6 6 5 6 7 9 11 13 13 13 13 13 14 17 19 19 16 17 15 12 10 9
4 7 7 7 7 8 9 8 9 11 15 12 12 12 11 12 11 10 10 10 9 8 8 7 7 6 7 6 6 6 6 6 7 9 13 11 8 9 9 9 12 12 12 11 11 9 10 9 9
4 6 7 9 11 11 12 12 12 14 16 14 12 11 12 13 12 11 10 10 9 9 9 8 8 8 7 6 6 7 7 8 8 9 12 12 9 10 10 9 11 12 12 12 10 9 9 7 7
4 7 11 12 13 9 11 15 9 14 12 10 11 12 12 12 12 10 9 9 9 9 9 8 8 8 8 7 7 7 8 8 9 9 12 14 11 11 11 11 11 11 13 13 12 10 9 7 6
5 7 10 8 7 5 6 11 10 13 9 10 12 12 13 13 12 11 10 9 9 9 9 8 8 8 8 8 8 7 8 9 9 10 13 15 14 13 12 12 11 12 15 14 11 10 7 6 6
3 3 6 6 4 4 3 12 11 10 9 12 13 12 13 13 12 11 11 10 8 8 8 8 7 7 8 8 7 7 8 9 9 10 12 15 15 15 13 11 12 13 14 12 10 10 7 7 7
2 4 7 8 4 3 5 14 13 12 11 13 12 12 13 13 13 11 9 9 8 7 8 8 6 8 8 7 7 7 7 9 9 9 10 13 15 16 13 12 12 14 13 11 12 10 8 8 8
5 6 7 8 6 8 12 18 19 13 12 13 12 12 12 12 13 10 8 7 7 6 7 7 6 7 7 6 6 6 6 7 8 9 10 13 13 15 13 11 13 14 13 12 12 11 9 8 9
5 7 12 13 10 9 14 20 21 17 12 12 12 11 10 11 11 8 6 5 4 4 5 7 6 7 6 5 5 6 7 7 8 9 12 14 14 14 13 11 13 13 13 14 14 10 11 9 8
8 11 12 12 6 9 14 19 18 14 10 10 11 10 10 9 8 8 6 4 3 5 5 7 7 7 8 7 6 6 6 7 8 8 11 14 15 15 14 13 13 13 12 15 15 12 9 8 9
9 10 10 11 11 7 9 11 8 8 7 8 8 8 8 8 8 8 6 5 4 5 6 7 6 6 7 7 5 4 4 4 6 8 9 12 14 15 14 14 14 14 13 15 16 15 12 11 9
9 8 9 9 8 6 3 8 10 8 9 8 7 6 6 7 7 6 6 5 5 6 6 6 6 6 6 6 6 6 6 7 7 7 8 11 14 15 15 15 15 15 13 14 16 15 11 13 12
7 6 7 8 6 6 4 6 10 6 8 9 7 7 6 6 6 6 6 6 6 5 5 6 5 5 6 7 8 7 7 7 6 7 8 9 11 13 14 15 15 15 13 15 15 13 14 12 11
3 5 6 3 1 5 6 5 8 5 7 8 7 6 6 6 6 6 5 5 5 5 5 5 5 6 6 7 8 8 8 8 8 9 9 9 8 10 12 14 15 15 13 15 16 15 15 12 11
3 4 5 6 3 6 4 5 9 8 7 8 8 7 6 6 5 6 6 6 6 6 6 6 6 7 7 7 8 9 10 10 12 11 11 10 9 9 11 12 13 14 14 14 14 15 16 15 14
2 6 4 4 5 6 5 7 8 7 7 6 5 5 6 6 5 6 6 7 7 7 6 6 7 7 7 7 8 9 9 8 9 10 10 11 10 10 11 12 13 13 14 15 15 14 14 14 13
3 4 5 4 4 6 7 7 8 6 6 6 6 7 7 8 7 7 7 7 7 7 7 6 7 8 7 7 7 8 8 8 8 9 10 9 9 9 11 12 13 14 15 16 15 14 15 14 14
5 5 3 2 4 6 7 7 6 7 6 7 7 8 9 9 9 8 7 7 7 7 7 6 7 7 7 6 5 6 7 8 8 8 9 10 10 10 10 12 14 13 15 16 15 13 14 15 14
4 3 4 4 4 5 7 8 5 7 6 7 8 9 9 9 10 9 8 8 7 6 6 6 7 7 6 5 5 5 6 7 7 8 10 10 9 10 12 12 14 14 15 15 15 15 15 16 14
7 8 7 5 7 6 7 11 5 6 6 7 10 10 10 10 10 9 8 8 8 7 6 6 6 6 6 5 5 5 5 5 6 8 9 9 9 10 11 12 13 14 15 15 15 15 16 17 16
Wind_Direction
333 336 43 57 61 64 237 240 234 269 276 266 261 154 155 174 168 197 233 144 132 155 169 175 175 175 174 171 168 163 161 160 158 155 153 150 148 146 144 143 141 140 138 135 132 130 127 125 123
336 348 57 70 125 205 246 230 230 242 260 305 328 349 34 245 171 124 76 164 142 154 167 175 178 177 175 175 173 169 167 165 163 161 158 155 153 151 150 148 146 143 140 137 134 132 131 128 126
333 59 97 106 181 203 218 218 222 249 276 301 327 327 308 249 105 158 258 146 135 152 166 177 181 180 178 178 177 176 173 170 169 166 163 161 158 156 155 154 151 147 142 138 136 135 135 133 131
39 51 67 180 230 227 224 270 302 308 321 340 354 316 316 326 117 94 39 119 131 157 170 178 182 185 182 181 181 181 178 176 175 173 169 167 163 160 158 156 152 147 143 141 140 139 138 137 134
62 89 162 236 241 243 252 280 294 297 301 313 332 298 294 313 59 62 53 84 135 159 175 182 185 187 187 186 185 185 184 182 181 179 176 172 167 163 160 155 152 149 147 145 145 144 143 139 137
57 90 187 234 243 251 264 282 290 292 302 313 330 306 273 326 30 24 43 54 147 165 185 187 188 189 191 192 190 188 188 187 186 183 180 175 170 166 162 158 155 152 152 151 151 150 147 144 142
115 144 219 241 264 270 280 303 305 304 306 296 301 298 287 318 343 346 360 11 36 173 183 195 197 192 195 199 197 194 192 190 188 186 183 178 174 170 167 163 160 157 156 155 154 153 150 148 145
130 130 244 251 256 260 317 333 304 307 286 292 307 278 283 303 324 337 346 353 342 239 210 213 213 198 197 200 200 199 197 193 190 189 184 179 176 173 170 166 163 162 160 159 158 155 154 153 149
93 167 236 239 251 269 321 327 306 297 287 298 286 266 269 288 319 337 332 326 320 294 239 222 219 213 204 201 202 199 198 195 192 189 182 177 175 172 170 167 165 165 164 163 162 159 158 155 152
120 210 236 241 260 287 299 294 297 307 299 295 297 295 294 297 302 302 288 284 281 282 262 228 219 217 213 210 201 199 199 194 190 186 182 178 172 170 170 169 167 167 166 166 164 162 159 153 149
187 223 256 270 277 288 293 287 274 276 278 272 282 295 301 299 290 276 264 257 254 253 262 249 224 216 214 207 201 195 192 187 187 183 180 176 169 166 168 167 167 165 164 163 162 158 154 152 150
255 259 264 279 301 296 285 288 279 255 261 266 265 270 278 281 278 271 264 260 257 257 255 256 230 219 217 212 202 196 189 187 188 184 181 174 174 173 170 171 166 162 162 159 159 157 157 160 161
268 279 289 292 295 284 281 272 271 264 266 270 272 271 270 273 270 266 264 263 258 256 256 255 239 219 215 214 213 204 196 194 192 185 185 181 180 182 176 174 172 167 164 165 163 163 165 167 166
277 291 294 290 284 277 273 277 270 267 270 275 276 273 269 268 268 267 268 266 261 252 251 250 250 225 214 211 213 211 199 194 192 190 189 187 182 183 181 175 178 173 171 170 169 169 171 172 168
307 307 302 278 265 261 285 283 249 262 279 277 273 270 270 266 264 259 256 254 255 254 250 249 253 234 217 212 210 211 204 197 198 196 192 189 187 183 185 181 181 179 175 172 169 168 166 167 168
324 315 298 286 274 264 279 275 264 274 280 278 275 273 271 270 265 262 257 254 253 256 253 246 257 247 224 214 212 209 207 202 201 196 194 190 189 185 183 187 185 180 175 172 170 169 167 170 168
320 288 274 291 272 286 265 275 275 279 275 275 274 273 273 274 274 271 259 254 254 251 251 242 244 244 225 219 216 214 208 206 201 197 194 191 190 188 185 188 186 179 176 173 174 171 166 168 168
264 269 272 275 283 296 282 277 285 283 270 270 274 275 271 271 272 274 269 262 259 258 254 242 237 243 227 218 219 216 215 211 205 200 194 190 189 189 186 189 186 181 179 176 175 170 166 167 166
253 262 275 277 283 294 279 282 286 286 279 274 276 273 270 270 270 273 271 267 267 278 271 250 237 245 226 214 214 215 215 215 209 205 198 193 189 186 189 191 188 187 186 179 173 168 166 166 157
257 273 279 289 294 298 285 283 280 276 267 263 268 268 268 275 283 282 280 271 263 260 272 259 239 238 225 217 214 212 214 217 209 206 201 196 192 189 191 189 190 190 188 180 176 167 165 166 165
263 256 266 282 309 294 301 294 278 282 281 286 277 264 259 264 272 279 282 268 269 273 272 269 255 252 236 222 220 221 214 211 206 207 203 200 196 194 192 192 189 189 191 187 181 176 169 170 174
273 253 260 283 310 295 336 298 285 284 299 298 296 286 272 277 276 274 276 272 265 269 273 264 256 255 246 223 214 214 215 221 219 208 208 203 197 194 194 195 192 189 193 191 185 179 173 168 174
247 273 276 280 271 284 258 244 283 299 289 293 293 288 281 281 285 285 275 264 265 266 272 269 264 259 253 231 217 220 225 227 222 207 204 207 202 197 195 197 196 192 195 193 184 179 178 177 176
269 340 324 354 54 276 242 222 281 274 268 286 294 288 278 280 288 300 301 291 287 290 286 279 275 268 265 244 227 221 231 228 219 209 205 205 204 201 197 198 198 193 195 194 186 182 180 183 180
67 46 348 344 345 256 270 248 256 266 270 268 277 285 284 285 299 310 316 310 305 297 292 294 284 279 270 251 236 227 228 226 213 205 206 204 205 205 199 198 197 193 197 195 187 184 185 183 184
195 149 181 257 263 286 294 252 257 272 290 297 296 303 312 311 303 299 298 296 296 295 287 292 287 279 272 255 243 230 221 224 215 207 204 206 207 207 201 202 197 193 195 194 190 188 188 186 189
185 202 194 196 273 274 266 274 294 296 307 317 325 335 327 310 304 301 300 296 293 297 292 284 284 277 274 265 254 233 219 225 223 212 208 208 208 205 201 202 197 197 195 193 191 192 191 188 191
190 170 115 166 265 271 276 268 261 284 294 310 319 320 311 312 309 302 300 295 291 290 290 295 285 281 279 275 267 254 227 223 222 216 214 212 208 202 200 205 200 198 196 192 193 191 190 191 192
190 179 181 195 213 237 272 267 230 245 270 295 305 309 309 311 307 299 296 297 294 295 298 301 299 288 290 281 272 260 245 228 222 222 220 208 203 201 202 204 202 198 197 192 193 192 190 193 192
205 203 183 210 244 232 259 271 252 250 274 295 304 307 308 306 303 297 297 301 305 299 296 292 297 296 286 280 272 261 256 240 228 228 225 211 204 203 206 206 202 198 196 194 195 193 192 193 194
Height
1500 1502 1503 1505 1508 1515 1513 1505 1497 1493 1489 1486 1485 1484 1484 1485 1488 1492 1487 1484 1484 1485 1485 1486 1488 1489 1491 1492 1494 1495 1497 1498 1500 1502 1503 1504 1506 1507 1509 1510 1511 1512 1513 1514 1515 1516 1517 1517 1518
1500 1502 1504 1504 1511 1516 1510 1499 1494 1490 1487 1485 1484 1483 1483 1483 1484 1485 1484 1484 1484 1485 1485 1486 1487 1489 1490 1492 1493 1495 1496 1498 1499 1501 1502 1504 1505 1507 1508 1509 1511 1512 1513 1514 1515 1516 1516 1517 1518
1499 1501 1503 1505 1508 1509 1502 1492 1490 1487 1486 1485 1485 1483 1483 1483 1484 1484 1484 1484 1484 1484 1485 1485 1487 1488 1489 1491 1492 1494 1495 1496 1498 1500 1501 1503 1504 1506 1507 1508 1510 1511 1512 1513 1514 1515 1516 1517 1518
1500 1502 1503 1506 1502 1498 1494 1490 1488 1487 1485 1485 1485 1484 1483 1484 1484 1484 1483 1483 1483 1483 1483 1484 1485 1487 1488 1490 1491 1492 1494 1495 1497 1498 1500 1501 1503 1504 1506 1507 1509 1510 1511 1512 1514 1515 1516 1517 1518
1499 1500 1504 1504 1498 1494 1491 1489 1488 1488 1487 1485 1485 1484 1482 1483 1482 1481 1481 1481 1481 1481 1482 1483 1484 1485 1487 1488 1489 1490 1492 1493 1495 1497 1498 1500 1502 1503 1505 1506 1507 1509 1510 1511 1513 1514 1515 1516 1518
1499 1500 1505 1502 1496 1492 1490 1489 1488 1487 1486 1485 1485 1483 1480 1480 1479 1479 1479 1480 1480 1480 1480 1481 1482 1483 1484 1486 1487 1488 1490 1491 1493 1495 1496 1498 1500 1501 1503 1504 1506 1507 1509 1510 1512 1513 1514 1516 1517
1499 1501 1501 1498 1495 1493 1490 1489 1488 1488 1486 1485 1484 1482 1479 1478 1477 1476 1477 1477 1478 1478 1478 1479 1480 1481 1482 1483 1484 1486 1487 1489 1490 1492 1493 1495 1497 1499 1501 1502 1504 1506 1507 1509 1510 1512 1514 1515 1517
1497 1501 1499 1497 1495 1492 1490 1489 1488 1488 1485 1484 1484 1481 1478 1477 1475 1474 1474 1475 1475 1475 1476 1476 1477 1478 1479 1480 1481 1483 1484 1486 1487 1489 1490 1492 1494 1496 1498 1500 1502 1504 1505 1507 1509 1511 1512 1514 1516
1497 1503 1500 1496 1494 1491 1489 1488 1487 1486 1484 1482 1481 1479 1477 1476 1473 1471 1471 1471 1471 1472 1473 1473 1474 1475 1475 1476 1477 1479 1480 1482 1484 1485 1487 1489 1491 1493 1495 1497 1499 1502 1504 1506 1508 1509 1511 1513 1515
1497 1501 1495 1492 1491 1490 1488 1487 1486 1484 1481 1478 1476 1474 1473 1472 1470 1468 1467 1467 1467 1467 1468 1469 1470 1470 1471 1473 1473 1475 1476 1478 1479 1481 1483 1485 1487 1489 1491 1494 1496 1499 1501 1504 1506 1508 1510 1511 1513
1495 1495 1492 1489 1488 1488 1486 1484 1483 1482 1477 1475 1473 1471 1469 1467 1466 1465 1464 1463 1463 1463 1463 1465 1465 1466 1467 1468 1469 1470 1471 1473 1475 1476 1479 1481 1483 1485 1487 1490 1493 1496 1498 1501 1504 1506 1507 1510 1512
1494 1491 1490 1488 1487 1486 1484 1482 1480 1477 1473 1472 1470 1468 1466 1464 1463 1461 1460 1459 1459 1459 1459 1459 1461 1461 1462 1463 1463 1465 1466 1468 1470 1472 1474 1476 1478 1480 1482 1485 1488 1491 1494 1497 1500 1503 1505 1508 1510
1493 1490 1488 1486 1484 1483 1480 1478 1476 1469 1467 1467 1465 1463 1462 1460 1459 1457 1457 1455 1455 1454 1454 1454 1455 1456 1457 1458 1459 1459 1461 1463 1465 1467 1469 1471 1473 1475 1478 1481 1484 1487 1490 1494 1497 1500 1503 1506 1508
1491 1489 1486 1483 1481 1478 1476 1472 1472 1463 1463 1462 1460 1458 1457 1455 1454 1453 1452 1451 1450 1449 1449 1449 1449 1450 1451 1452 1453 1454 1455 1457 1460 1462 1464 1466 1468 1471 1473 1476 1479 1482 1486 1490 1494 1497 1500 1503 1506
1490 1489 1485 1480 1477 1475 1474 1469 1464 1459 1459 1457 1455 1453 1451 1450 1449 1447 1446 1445 1445 1444 1444 1444 1444 1444 1445 1446 1448 1449 1450 1452 1453 1456 1459 1461 1463 1466 1469 1471 1474 1478 1482 1486 1491 1494 1498 1501 1504
1490 1491 1489 1479 1475 1473 1477 1468 1460 1457 1456 1452 1450 1447 1445 1443 1442 1441 1440 1439 1439 1438 1438 1438 1438 1439 1439 1440 1442 1443 1444 1446 1448 1450 1453 1455 1458 1461 1464 1466 1469 1473 1477 1481 1486 1490 1494 1498 1501
1493 1494 1489 1480 1473 1472 1472 1464 1455 1454 1452 1447 1444 1442 1439 1437 1436 1435 1434 1433 1433 1432 1432 1432 1432 1433 1433 1435 1436 1437 1438 1440 1442 1444 1446 1449 1452 1455 1458 1461 1464 1467 1471 1475 1480 1485 1489 1494 1498
1492 1492 1487 1482 1473 1471 1469 1459 1450 1448 1446 1442 1439 1436 1433 1431 1429 1429 1429 1428 1427 1426 1426 1426 1427 1427 1428 1429 1431 1431 1432 1434 1436 1438 1440 1443 1446 1449 1452 1456 1459 1461 1465 1469 1474 1479 1485 1490 1495
1487 1487 1485 1477 1470 1470 1463 1454 1446 1441 1439 1436 1433 1430 1428 1426 1424 1424 1424 1423 1422 1421 1420 1420 1419 1420 1421 1422 1423 1424 1425 1427 1429 1431 1434 1437 1440 1443 1446 1449 1453 1455 1458 1463 1468 1474 1480 1485 1491
1485 1485 1481 1472 1467 1466 1459 1449 1440 1435 1433 1431 1428 1425 1424 1421 1420 1419 1418 1417 1417 1416 1415 1414 1414 1414 1415 1416 1418 1419 1419 1420 1422 1425 1427 1430 1433 1437 1440 1443 1447 1451 1454 1458 1463 1469 1474 1479 1484
1481 1481 1477 1473 1468 1465 1462 1449 1439 1432 1429 1426 1424 1421 1420 1419 1416 1415 1414 1413 1412 1411 1410 1409 1408 1408 1409 1410 1412 1413 1414 1414 1416 1418 1420 1423 1427 1430 1434 1437 1442 1446 1449 1452 1456 1461 1466 1472 1479
1479 1472 1471 1470 1474 1473 1467 1461 1440 1433 1428 1423 1420 1418 1416 1415 1413 1411 1410 1409 1408 1407 1406 1404 1404 1404 1404 1404 1406 1406 1406 1406 1408 1411 1414 1417 1420 1424 1428 1431 1435 1440 1444 1447 1449 1455 1461 1466 1471
1473 1469 1469 1468 1471 1474 1467 1469 1443 1435 1429 1422 1418 1415 1413 1412 1410 1408 1407 1406 1404 1403 1401 1400 1399 1398 1398 1399 1399 1400 1400 1401 1403 1406 1408 1411 1414 1417 1421 1425 1429 1433 1438 1442 1445 1449 1455 1460 1465
1470 1471 1470 1473 1475 1478 1465 1466 1447 1437 1426 1419 1415 1413 1411 1410 1408 1405 1403 1402 1400 1399 1397 1395 1394 1393 1393 1393 1393 1393 1394 1395 1397 1399 1402 1404 1407 1411 1414 1418 1423 1427 1431 1436 1439 1444 1450 1455 1460
1472 1480 1487 1486 1489 1476 1458 1456 1442 1427 1421 1418 1414 1411 1409 1407 1406 1403 1400 1398 1396 1394 1392 1390 1389 1387 1387 1387 1387 1387 1388 1389 1390 1392 1396 1398 1401 1404 1407 1412 1416 1421 1426 1431 1435 1440 1444 1450 1455
1473 1478 1488 1490 1486 1470 1457 1449 1433 1422 1418 1414 1412 1409 1407 1405 1404 1401 1399 1397 1394 1391 1389 1387 1385 1383 1382 1382 1382 1383 1384 1384 1385 1387 1389 1392 1395 1398 1401 1406 1411 1415 1421 1425 1429 1435 1440 1445 1450
1472 1476 1475 1482 1482 1478 1459 1446 1431 1419 1415 1413 1410 1408 1406 1404 1402 1399 1397 1394 1391 1388 1386 1383 1381 1379 1378 1376 1376 1376 1378 1378 1380 1382 1384 1387 1390 1393 1397 1401 1405 1410 1415 1420 1424 1429 1434 1440 1445
1466 1469 1479 1481 1482 1473 1457 1447 1434 1421 1416 1412 1409 1407 1404 1402 1399 1396 1394 1391 1388 1385 1382 1379 1377 1375 1372 1371 1371 1371 1372 1373 1374 1377 1379 1381 1384 1387 1391 1395 1399 1403 1409 1414 1419 1423 1429 1434 1440
1466 1469 1469 1475 1476 1473 1461 1437 1419 1418 1413 1411 1408 1405 1402 1399 1397 1394 1391 1388 1385 1381 1378 1376 1373 1371 1369 1368 1367 1367 1368 1369 1370 1372 1373 1376 1379 1382 1386 1389 1393 1397 1403 1407 1412 1417 1422 1428 1433
1459 1460 1464 1471 1470 1468 1458 1431 1412 1412 1409 1408 1406 1403 1400 1397 1394 1391 1388 1384 1381 1378 1375 1372 1369 1367 1366 1364 1364 1363 1363 1364 1365 1366 1368 1371 1373 1377 1380 1384 1387 1392 1397 1401 1406 1411 1416 1422 1427